Skip Page Navigation
NASA JPL Caltech
NASA Logo - Jet Propulsion Laboratory + View the NASA Portal
+ Center for Near-Earth Object Studies
JPL Home Earth Solar System Stars & Galaxies Technology
JPL Solar System Dynamics
BODIES ORBITS EPHEMERIDES TOOLS PHYSICAL DATA DISCOVERY FAQ SITE MAP
JPL Small-Body Database Browser
Search: [ help ]  
393204 (2013 CO205)
Classification: Main-belt Asteroid          SPK-ID: 2393204
Ephemeris | Orbit Diagram | Orbital Elements | Mission Design | Physical Parameters | Discovery Circumstances | Close-Approach Data ]

[ show orbit diagram ]
Orbital Elements at Epoch 2459000.5 (2020-May-31.0) TDB
Reference: JPL 16 (heliocentric ecliptic J2000)
 Element Value Uncertainty (1-sigma)   Units 
e .1184519218859738 5.8882e-08  
a 3.183270149009604 4.7884e-08 au
q 2.806205681977167 1.9321e-07 au
i 6.325433109255571 6.3863e-06 deg
node 122.6424998294478 6.373e-05 deg
peri 163.2675715000328 7.2953e-05 deg
M 334.5210652935011 3.1645e-05 deg
tp 2459147.320749584670
(2020-Oct-24.82074958)
0.00018211 TDB
period 2074.477228319884
5.68
4.6808e-05
1.282e-07
d
yr
n .1735376966714469 3.9156e-09 deg/d
Q 3.560334616042042 5.3556e-08 au
  Orbit Determination Parameters
   # obs. used (total)      140  
   data-arc span      5339 days (14.62 yr)  
   first obs. used      2005-11-04  
   last obs. used      2020-06-17  
   planetary ephem.      DE431  
   SB-pert. ephem.      SB431-N16  
   condition code      0  
   norm. resid. RMS      .6888  
   source      ORB  
   producer      Otto Matic  
   solution date      2020-Nov-12 16:19:04  

Additional Information
 Earth MOID = 1.79056 au 
 Jupiter MOID = 1.60973 au 
 T_jup = 3.178 
[ show covariance matrix ]

Ephemeris | Orbit Diagram | Orbital Elements | Mission Design | Physical Parameters | Discovery Circumstances | Close-Approach Data ]

Physical Parameter Table
Parameter Symbol Value Units Sigma Reference Notes
absolute magnitude H 16.0   n/a MPO434461  

393204 (2013 CO205)          Discovered 2008-Mar-31 by Mt. Lemmon Survey at Mount Lemmon
Reference: Last Updated: 2014-04-17

[ hide close-approach data ]
Close-Approach Data   ...sorted by Date/Time (TDB)
Date/Time (TDB) Time Uncertainty
(days_HH:MM)
Body Nominal Distance (au) Minimum Distance (au) Maximum Distance (au) V-relative (km/s) V-infinity (km/s) JD (TDB) Time Uncertainty (minutes) Semi-major axis (km) Semi-minor axis (km) range-LOV angle (deg) N-sigma BP Orbit Ref. Reference Modified
1955-Jun-24 15:24 00:05 Jupiter 1.88442828740859 1.88442599857714 1.8844305762514 2.96576821956458 2.81012648269758 2435283.141877733 5.19114794221089 278.61300056289 27.3878661187749 -72.2320521531724 1825408.08727727 T 16 CATAB v2.0f-lin.ifort 2020-Nov-12 16:19:05 2020-Nov-12 16:19
1966-Jun-22 08:02 00:04 Jupiter 1.71562669787838 1.71562537953936 1.71562801622101 2.43992860857978 2.22841447673413 2439298.834442521 4.18561915979113 177.063633547427 22.482824069003 -80.5801298883574 1530940.36193668 T 16 CATAB v2.0f-lin.ifort 2020-Nov-12 16:19:05 2020-Nov-12 16:19
1977-Jun-17 20:49 00:03 Jupiter 1.64777517249455 1.64777450200106 1.64777584298757 2.14306176474062 1.88802370902471 2443312.367523839 3.19482604315994 104.307011979256 25.9978088775292 -84.7107272148717 1590177.23497196 T 16 CATAB v2.0f-lin.ifort 2020-Nov-12 16:19:05 2020-Nov-12 16:19
1988-May-29 13:19 00:02 Jupiter 1.70048371595189 1.70048294107584 1.70048449082774 2.36244870817054 2.14124970116431 2447311.054761907 2.23916612415312 141.570122923427 13.2986596074009 86.5915377067666 1654434.28666539 T 16 CATAB v2.0f-lin.ifort 2020-Nov-12 16:19:05 2020-Nov-12 16:19
1999-Apr-30 06:08 00:01 Jupiter 1.85013121628749 1.85013039962941 1.85013203294546 3.26957640784051 3.12641884806357 2451298.755289851 1.30740276647796 92.4189662327252 29.7015315108263 -89.7288338658738 1812294.20343171 T 16 CATAB v2.0f-lin.ifort 2020-Nov-12 16:19:05 2020-Nov-12 16:19
2098-Feb-20 13:38 00:05 Jupiter 1.91561733847422 1.91561484644363 1.91561983051787 3.00779417657876 2.85700753863639 2487390.067763577 5.34344784616159 298.543903629398 26.7848387697168 -71.6670231576592 1801825.27530138 T 16 CATAB v2.0f-lin.ifort 2020-Nov-12 16:19:05 2020-Nov-12 16:19
2109-Feb-19 08:29 00:06 Jupiter 1.73583369889322 1.73583178394813 1.73583561385369 2.5253269540293 2.32408053730659 2491405.853168378 6.27777603162536 307.608731892132 21.2078863679767 -80.2461394110712 1656830.92146912 T 16 CATAB v2.0f-lin.ifort 2020-Nov-12 16:19:05 2020-Nov-12 16:19
2120-Feb-18 18:43 00:07 Jupiter 1.65686241230153 1.65686174940087 1.65686307520209 2.2449262816435 2.00430846543559 2495422.279840657 7.47605922666892 123.916066478715 30.7948750114903 88.9144724223356 1458264.34385656 T 16 CATAB v2.0f-lin.ifort 2020-Nov-12 16:19:05 2020-Nov-12 16:19
2131-Feb-05 14:34 00:09 Jupiter 1.69731397739337 1.69731196148101 1.69731599333159 2.34930323397485 2.1262999876486 2499427.107178420 9.02214821610393 401.907422064672 17.8921758293343 -86.5187928390612 1509777.69414859 T 16 CATAB v2.0f-lin.ifort 2020-Nov-12 16:19:05 2020-Nov-12 16:19
2142-Jan-06 14:42 00:10 Jupiter 1.83673652110861 1.83673290630836 1.83674013596857 3.11202122650482 2.9601289880094 2503415.112419194 10.307181209768 585.264062355829 31.0971468086351 -79.7248881418512 1720529.06345388 T 16 CATAB v2.0f-lin.ifort 2020-Nov-12 16:19:05 2020-Nov-12 16:19

Alternate Designations
 2013 CO205 = 2010 OR25 
Ephemeris | Orbit Diagram | Orbital Elements | Mission Design | Physical Parameters | Discovery Circumstances | Close-Approach Data ]
ABOUT SSD CREDITS/AWARDS PRIVACY/COPYRIGHT GLOSSARY LINKS
FirstGov 2021-Jan-21 09:37 UT
(server date/time)  
NASA Home Page
Site Manager:   Ryan S. Park
Webmaster  Alan B. Chamberlin